AV194 Weather Reports


Display with metric or nautical units.
time (UTC)temp
F
wind
direction
speed
MPH
gust
MPH
rain 1hr
in
rain 24hr
in
rain mn
in
humidity
%
barometer
mb
20260904075503 66 94 0.0 0.0 0.00 0.04 0.00 97 1009.0
20260904075004 66 94 0.0 0.0 0.00 0.04 0.00 97 1009.0
20260904074504 66 94 0.0 0.0 0.00 0.04 0.00 97 1009.0
20260904074003 66 94 0.0 0.0 0.00 0.04 0.00 97 1009.0
20260904073503 66 94 0.0 0.0 0.00 0.04 0.00 97 1008.9
20260904073001 66 94 0.0 0.0 0.00 0.04 0.00 97 1009.0
20260904072502 66 94 0.0 0.0 0.00 0.04 0.00 97 1009.1
20260904072101 66 94 0.0 0.0 0.00 0.04 0.00 97 1009.2
20260904071601 66 94 0.0 0.0 0.00 0.04 0.00 97 1009.2
20260904071100 66 94 0.0 0.0 0.00 0.04 0.00 97 1009.2
20260904070600 67 94 0.0 0.0 0.00 0.04 0.00 97 1009.2
20260904065559 67 94 0.0 0.0 0.00 0.04 0.00 97 1009.1
20260904065100 67 94 0.0 0.0 0.00 0.04 0.00 97 1009.1
20260904064619 67 94 0.0 0.0 0.00 0.04 0.00 97 1009.3
20260904064100 67 94 0.0 0.0 0.00 0.04 0.00 97 1009.3
20260904063557 67 94 0.0 0.0 0.00 0.04 0.00 97 1009.4
20260904063057 67 94 0.0 0.0 0.00 0.04 0.00 97 1009.3
20260904062559 67 94 0.0 0.0 0.00 0.04 0.00 97 1009.2
20260904062056 67 94 0.0 0.0 0.00 0.04 0.00 97 1009.3
20260904061555 67 94 0.0 0.0 0.00 0.04 0.00 97 1009.4
20260904061058 67 94 0.0 0.0 0.00 0.04 0.00 97 1009.5
20260904060554 67 94 0.0 0.0 0.00 0.04 0.00 97 1009.7
20260904060053 67 94 0.0 0.0 0.00 0.04 0.00 97 1009.8
20260904055553 67 94 0.0 0.0 0.00 0.04 0.00 97 1009.8
20260904055054 67 94 0.0 0.0 0.00 0.04 0.00 97 1009.9
20260904054551 67 94 0.0 0.0 0.00 0.04 0.00 97 1010.0
20260904054054 67 94 0.0 0.0 0.00 0.04 0.00 97 1010.0
20260904053550 67 94 0.0 0.0 0.00 0.04 0.00 97 1010.0
20260904053054 67 94 0.0 0.0 0.00 0.04 0.00 97 1010.1
20260904052553 67 94 0.0 0.0 0.00 0.04 0.00 97 1010.0
20260904052049 67 94 0.0 0.0 0.00 0.04 0.00 97 1010.1
20260904051549 67 94 0.0 0.0 0.00 0.04 0.00 97 1010.2
20260904051048 67 94 0.0 0.0 0.00 0.04 0.00 97 1010.3
20260904050548 67 92 0.0 0.0 0.00 0.04 0.00 97 1010.3
20260904050057 67 92 0.0 0.0 0.00 0.04 0.00 97 1010.2
20260904045548 67 92 0.0 0.0 0.00 0.04 0.00 97 1010.1
20260904045047 67 92 0.0 0.0 0.00 0.04 0.00 96 1010.3
20260904044555 67 92 0.0 0.0 0.00 0.04 0.00 96 1010.2
20260904044047 67 92 0.0 0.0 0.00 0.04 0.00 96 1010.3
20260904043545 67 78 0.0 0.0 0.00 0.04 0.00 96 1010.2
20260904043046 67 78 0.0 0.0 0.00 0.04 0.00 96 1010.3
20260904042545 67 78 0.0 0.0 0.00 0.04 0.00 96 1010.3
20260904042045 67 78 0.0 0.0 0.00 0.04 0.00 96 1010.3
20260904041548 67 78 0.0 0.0 0.00 0.04 0.00 96 1010.5
20260904041042 66 78 0.0 0.0 0.00 0.04 0.00 96 1010.5
20260904040542 66 78 0.0 0.0 0.00 0.04 0.00 96 1010.5
20260904040042 66 84 0.0 1.0 0.00 0.04 0.04 96 1010.5
20260904035542 66 84 0.0 1.0 0.00 0.04 0.04 96 1010.6
20260904035041 66 86 0.0 0.0 0.00 0.04 0.04 96 1010.6
20260904034547 66 86 0.0 0.0 0.00 0.04 0.04 96 1010.7
20260904034041 66 86 0.0 0.0 0.00 0.04 0.04 96 1010.8
20260904033540 66 86 0.0 0.0 0.00 0.04 0.04 96 1010.7
20260904033041 66 86 0.0 0.0 0.00 0.04 0.04 96 1010.7
20260904032543 66 86 0.0 0.0 0.00 0.04 0.04 96 1010.6
20260904032040 66 86 0.0 0.0 0.00 0.04 0.04 96 1010.6
20260904031543 66 86 0.0 0.0 0.00 0.04 0.04 96 1010.8
20260904031039 66 86 0.0 0.0 0.00 0.04 0.04 96 1010.8
20260904030539 66 86 0.0 1.0 0.00 0.04 0.04 96 1010.9
20260904030039 66 86 0.0 2.0 0.00 0.04 0.04 96 1010.8
20260904025541 66 86 0.0 2.0 0.00 0.04 0.04 96 1010.9
20260904025039 67 105 0.0 0.0 0.00 0.04 0.04 96 1010.8
20260904024541 67 105 0.0 0.0 0.00 0.04 0.04 96 1010.6
20260904024037 67 82 0.0 0.0 0.00 0.04 0.04 96 1010.7
20260904023541 67 82 0.0 0.0 0.00 0.04 0.04 95 1010.7
20260904023038 67 82 0.0 0.0 0.00 0.04 0.04 95 1010.8
20260904022538 67 194 0.0 0.0 0.00 0.04 0.04 95 1010.9
20260904022039 67 194 0.0 0.0 0.00 0.04 0.04 95 1010.8
20260904021537 67 194 0.0 0.0 0.00 0.04 0.04 96 1010.9
20260904021037 67 194 0.0 0.0 0.00 0.04 0.04 95 1010.8
20260904020537 67 194 0.0 0.0 0.00 0.04 0.04 95 1010.9
20260904020045 67 194 0.0 0.0 0.00 0.04 0.04 95 1010.9
20260904015536 68 194 0.0 0.0 0.00 0.04 0.04 95 1011.0
20260904015037 68 194 0.0 0.0 0.00 0.04 0.04 95 1011.1
20260904014539 68 194 0.0 0.0 0.00 0.04 0.04 95 1011.1
20260904014037 68 194 0.0 0.0 0.00 0.04 0.04 95 1011.1
20260904013536 68 194 0.0 0.0 0.00 0.04 0.04 95 1011.1
20260904013038 68 194 0.0 0.0 0.00 0.04 0.04 95 1011.1
20260904012536 68 194 0.0 0.0 0.00 0.04 0.04 95 1011.1
20260904012039 68 194 0.0 1.0 0.00 0.04 0.04 95 1011.0
20260904011535 68 194 0.0 1.0 0.00 0.04 0.04 95 1011.1
20260904011037 68 129 0.0 0.0 0.00 0.04 0.04 95 1011.1
20260904010538 68 128 0.0 0.0 0.00 0.04 0.04 95 1011.1
20260904010041 68 129 0.0 0.0 0.00 0.04 0.04 95 1011.1
20260904005534 68 128 0.0 0.0 0.00 0.04 0.04 95 1011.0
20260904005035 68 128 0.0 0.0 0.00 0.04 0.04 95 1010.9
20260904004537 68 128 0.0 0.0 0.00 0.04 0.04 95 1010.8
20260904004034 68 128 0.0 1.0 0.00 0.04 0.04 95 1010.8
20260904003535 68 129 0.0 1.0 0.00 0.04 0.04 94 1010.9
20260904003034 68 129 0.0 0.0 0.00 0.04 0.04 94 1010.8
20260904002534 68 129 0.0 0.0 0.00 0.04 0.04 94 1010.7
20260904002034 68 128 0.0 0.0 0.00 0.04 0.04 94 1010.7
20260904001534 68 128 0.0 0.0 0.00 0.04 0.04 94 1010.6
20260904001034 68 128 0.0 0.0 0.00 0.04 0.04 94 1010.5
20260904000533 68 128 0.0 0.0 0.00 0.04 0.04 94 1010.4
20260904000032 68 128 0.0 0.0 0.00 0.04 0.04 94 1010.2
20260903235531 68 129 0.0 0.0 0.00 0.04 0.04 94 1010.3
20260903235035 69 129 0.0 0.0 0.00 0.04 0.04 93 1010.4
20260903234531 69 128 0.0 0.0 0.00 0.04 0.04 93 1010.4
20260903234030 69 128 0.0 0.0 0.00 0.04 0.04 93 1010.4
20260903233533 69 128 0.0 0.0 0.00 0.04 0.04 93 1010.2
20260903233034 69 128 0.0 0.0 0.00 0.04 0.04 93 1010.2
20260903232529 69 128 0.0 0.0 0.00 0.04 0.04 93 1010.2
20260903232030 70 128 0.0 0.0 0.00 0.04 0.04 93 1010.2
20260903231528 70 128 0.0 0.0 0.00 0.04 0.04 93 1010.3
20260903231028 70 128 0.0 0.0 0.00 0.04 0.04 92 1010.4
20260903230528 70 129 0.0 0.0 0.00 0.04 0.04 92 1010.4
20260903230036 70 129 0.0 0.0 0.00 0.04 0.04 92 1010.6
20260903225529 70 129 0.0 0.0 0.00 0.04 0.04 92 1010.5
20260903225028 71 129 0.0 0.0 0.00 0.04 0.04 92 1010.4
20260903224528 71 129 0.0 1.0 0.00 0.04 0.04 92 1010.3
20260903224032 71 128 0.0 1.0 0.00 0.04 0.04 91 1010.3
20260903223527 71 129 0.0 1.0 0.00 0.04 0.04 91 1010.3
20260903223026 71 128 0.0 0.0 0.00 0.04 0.04 91 1010.3
20260903222529 71 129 0.0 0.0 0.00 0.04 0.04 91 1010.5
20260903222028 71 129 0.0 0.0 0.00 0.04 0.04 91 1010.7
20260903221534 71 128 0.0 0.0 0.00 0.04 0.04 90 1010.8
20260903221023 72 128 0.0 0.0 0.00 0.04 0.04 90 1010.7
20260903220523 72 128 0.0 1.0 0.00 0.04 0.04 90 1010.7
20260903220042 72 129 0.0 0.0 0.00 0.04 0.04 90 1010.8
20260903215523 72 128 0.0 0.0 0.00 0.04 0.04 89 1010.7
20260903215022 72 129 0.0 0.0 0.00 0.04 0.04 89 1010.8
20260903214525 72 128 0.0 0.0 0.00 0.04 0.04 89 1010.8
20260903214022 72 129 0.0 0.0 0.00 0.04 0.04 88 1010.8
20260903213521 73 119 0.0 0.0 0.00 0.04 0.04 88 1010.8
20260903213019 73 119 0.0 2.0 0.00 0.04 0.04 88 1010.7
20260903212518 73 97 0.0 2.0 0.00 0.04 0.04 88 1010.8
20260903212019 73 101 0.0 1.0 0.00 0.04 0.04 87 1010.9
20260903211514 73 101 0.0 1.0 0.00 0.04 0.04 87 1010.9
20260903211014 73 110 0.0 1.0 0.00 0.04 0.04 88 1010.7
20260903210513 73 110 0.0 0.0 0.00 0.04 0.04 87 1010.7
20260903210013 73 115 0.0 0.0 0.00 0.04 0.04 86 1010.8
20260903205512 73 115 0.0 0.0 0.00 0.04 0.04 86 1010.7
20260903205011 73 115 0.0 2.0 0.00 0.04 0.04 86 1010.7
20260903204511 72 115 0.0 2.0 0.00 0.04 0.04 86 1010.8
20260903204012 72 95 0.0 5.0 0.00 0.04 0.04 86 1010.9
20260903203515 72 22 1.0 5.0 0.00 0.04 0.04 86 1010.8
20260903203021 72 104 1.0 4.0 0.00 0.04 0.04 86 1010.8
20260903202510 72 57 1.0 2.0 0.00 0.04 0.04 86 1010.8
20260903202010 72 276 0.0 4.0 0.00 0.04 0.04 86 1010.9
20260903201509 72 347 1.0 3.0 0.00 0.04 0.04 86 1010.8
20260903201008 72 36 0.0 1.0 0.00 0.04 0.04 86 1010.8
20260903200510 72 13 0.0 2.0 0.00 0.04 0.04 85 1011.0
20260903200019 72 350 0.0 5.0 0.00 0.04 0.04 85 1011.1
20260903195506 72 44 1.0 5.0 0.00 0.04 0.04 85 1011.1
20260903195006 72 51 0.0 5.0 0.00 0.04 0.04 84 1011.1
20260903194517 72 13 0.0 5.0 0.00 0.04 0.04 84 1011.3
20260903194003 72 28 0.0 4.0 0.00 0.04 0.04 84 1011.3
20260903193502 72 83 1.0 3.0 0.00 0.04 0.04 85 1011.4
20260903193001 72 5 0.0 5.0 0.00 0.04 0.04 85 1011.5
20260903192559 72 344 1.0 5.0 0.00 0.04 0.04 86 1011.5
20260903192059 72 80 0.0 1.0 0.00 0.04 0.04 85 1011.6
20260903191604 72 342 0.0 2.0 0.00 0.04 0.04 85 1011.6
20260903191057 72 105 0.0 2.0 0.00 0.04 0.04 86 1011.6
20260903190555 71 299 1.0 2.0 0.00 0.04 0.04 87 1011.6
20260903190055 71 355 0.0 5.0 0.00 0.04 0.04 86 1011.5
20260903185554 71 38 1.0 5.0 0.00 0.04 0.04 86 1011.7
20260903185053 71 229 0.0 2.0 0.00 0.04 0.04 86 1011.7
20260903184553 71 215 1.0 2.0 0.00 0.04 0.04 87 1011.8
20260903184050 70 46 0.0 4.0 0.00 0.04 0.04 88 1011.9
20260903183547 70 168 1.0 5.0 0.00 0.04 0.04 88 1012.0
20260903183108 70 108 2.0 5.0 0.00 0.04 0.04 88 1012.0
20260903182547 69 35 2.0 6.0 0.00 0.04 0.04 89 1012.2
20260903182045 69 113 2.0 6.0 0.00 0.04 0.04 89 1012.2
20260903181542 69 348 2.0 5.0 0.00 0.04 0.04 89 1012.1
20260903181042 69 72 2.0 5.0 0.00 0.04 0.04 90 1012.3
20260903180541 68 105 1.0 3.0 0.00 0.04 0.04 91 1012.4
20260903180040 68 70 0.0 4.0 0.00 0.04 0.04 90 1012.4
20260903175539 68 122 1.0 5.0 0.00 0.04 0.04 91 1012.5
20260903175041 68 57 2.0 5.0 0.00 0.04 0.04 91 1012.6
20260903174538 67 90 0.0 2.0 0.00 0.04 0.04 90 1012.6
20260903174037 68 319 1.0 5.0 0.00 0.04 0.04 90 1012.7
20260903173538 67 83 1.0 5.0 0.00 0.04 0.04 91 1012.8
20260903173038 67 51 0.0 1.0 0.00 0.04 0.04 90 1012.9
20260903172537 67 45 0.0 2.0 0.00 0.04 0.04 90 1012.8
20260903172036 68 39 0.0 4.0 0.00 0.04 0.04 90 1012.7
20260903171537 68 105 0.0 5.0 0.00 0.04 0.04 90 1012.7
20260903171036 68 52 1.0 6.0 0.00 0.04 0.04 90 1012.7
20260903170536 68 46 0.0 6.0 0.00 0.04 0.04 90 1012.5
20260903170037 68 71 1.0 6.0 0.00 0.04 0.04 90 1012.5
20260903165534 68 76 3.0 6.0 0.00 0.04 0.04 90 1012.6
20260903165038 68 33 0.0 3.0 0.00 0.04 0.04 91 1012.6
20260903164634 68 92 1.0 5.0 0.00 0.04 0.04 91 1012.6
20260903164036 67 49 1.0 6.0 0.00 0.04 0.04 91 1012.7
20260903163533 67 184 2.0 6.0 0.00 0.04 0.04 92 1012.7
20260903163032 67 89 2.0 5.0 0.00 0.04 0.04 92 1012.7
20260903162531 67 37 1.0 3.0 0.00 0.04 0.04 92 1012.6
20260903162031 67 24 0.0 4.0 0.00 0.04 0.04 92 1012.6
20260903161536 66 86 1.0 4.0 0.00 0.04 0.04 92 1012.8
20260903161028 66 132 1.0 4.0 0.00 0.04 0.04 93 1012.8
20260903160528 66 43 0.0 5.0 0.00 0.04 0.04 93 1012.8
20260903160028 66 36 0.0 5.0 0.00 0.04 0.04 93 1012.9
20260903155535 66 169 1.0 5.0 0.00 0.04 0.04 93 1012.9
20260903155027 66 175 1.0 7.0 0.00 0.04 0.04 93 1012.9
20260903154526 66 360 1.0 7.0 0.00 0.04 0.04 94 1012.7
20260903154026 66 18 1.0 5.0 0.00 0.04 0.04 95 1012.9
20260903153524 65 28 2.0 5.0 0.00 0.04 0.04 95 1013.0
20260903153023 65 74 0.0 4.0 0.00 0.04 0.04 95 1013.1
20260903152522 65 111 1.0 4.0 0.00 0.04 0.04 95 1013.2
20260903152022 65 34 0.0 2.0 0.00 0.04 0.04 96 1013.3
20260903151519 64 37 0.0 3.0 0.00 0.04 0.04 95 1013.4
20260903151019 64 38 1.0 4.0 0.00 0.04 0.04 96 1013.5
20260903150520 64 75 1.0 4.0 0.00 0.04 0.04 96 1013.5
20260903150018 64 14 0.0 4.0 0.00 0.04 0.04 96 1013.5
20260903145520 64 67 1.0 4.0 0.00 0.04 0.04 96 1013.4
20260903145018 64 65 0.0 4.0 0.00 0.04 0.04 95 1013.5
20260903144518 64 86 0.0 5.0 0.00 0.04 0.04 96 1013.5
20260903144016 64 50 2.0 5.0 0.00 0.04 0.04 96 1013.6
20260903143515 63 82 0.0 2.0 0.00 0.04 0.04 96 1013.6
20260903143018 63 55 0.0 1.0 0.00 0.04 0.04 96 1013.5
20260903142515 63 55 0.0 2.0 0.00 0.04 0.04 96 1013.5
20260903142018 64 65 0.0 2.0 0.00 0.04 0.04 96 1013.5
20260903141513 64 90 0.0 1.0 0.00 0.04 0.04 96 1013.6
20260903141012 63 90 0.0 1.0 0.00 0.04 0.04 96 1013.9
20260903140512 63 90 0.0 1.0 0.00 0.04 0.04 96 1013.8
20260903140015 63 49 0.0 0.0 0.00 0.04 0.04 96 1013.9
20260903135509 63 43 0.0 0.0 0.00 0.04 0.04 96 1013.9
20260903135009 63 43 0.0 0.0 0.00 0.04 0.04 96 1014.0
20260903134510 63 43 0.0 1.0 0.00 0.04 0.04 96 1014.0
20260903134010 63 43 0.0 1.0 0.00 0.04 0.04 96 1014.0
20260903133509 63 40 0.0 0.0 0.00 0.04 0.04 96 1013.9
20260903133012 63 40 0.0 1.0 0.00 0.04 0.04 96 1013.9
20260903132509 63 40 0.0 1.0 0.00 0.04 0.04 96 1013.7
20260903132008 63 40 0.0 1.0 0.00 0.04 0.04 96 1013.7
20260903131512 62 82 0.0 1.0 0.00 0.04 0.04 96 1013.7
20260903131007 62 82 0.0 1.0 0.00 0.04 0.04 96 1013.9
20260903130506 62 82 0.0 2.0 0.00 0.04 0.04 96 1013.9
20260903130006 62 102 0.0 2.0 0.00 0.04 0.04 96 1013.8
20260903125506 62 88 0.0 0.0 0.00 0.04 0.04 96 1013.9
20260903125006 62 88 0.0 0.0 0.00 0.04 0.04 96 1013.9
20260903124505 62 88 0.0 0.0 0.00 0.04 0.04 96 1013.9
20260903124005 62 88 0.0 0.0 0.00 0.04 0.04 96 1014.0
20260903123506 62 88 0.0 1.0 0.00 0.04 0.04 96 1014.1
20260903123004 62 88 0.0 1.0 0.00 0.04 0.04 96 1014.2
20260903122503 62 88 0.0 0.0 0.00 0.04 0.04 96 1014.4
20260903122002 62 88 0.0 0.0 0.00 0.04 0.04 96 1014.3
20260903121500 62 88 0.0 0.0 0.00 0.04 0.04 96 1014.4
20260903121100 62 88 0.0 1.0 0.00 0.04 0.04 96 1014.4
20260903120602 62 88 0.0 2.0 0.00 0.04 0.04 96 1014.5
20260903115559 62 63 0.0 1.0 0.00 0.04 0.04 95 1014.5
20260903115058 62 60 0.0 1.0 0.00 0.04 0.04 96 1014.5
20260903114557 62 48 0.0 0.0 0.00 0.04 0.04 95 1014.7
20260903114056 62 46 0.0 0.0 0.00 0.04 0.04 95 1014.7
20260903113559 62 46 0.0 0.0 0.00 0.04 0.04 95 1014.7
20260903113055 62 46 0.0 1.0 0.00 0.04 0.04 95 1014.7
20260903112556 62 46 0.0 0.0 0.00 0.04 0.04 95 1014.8
20260903112055 62 46 0.0 1.0 0.00 0.04 0.04 95 1014.8
20260903111554 62 46 0.0 1.0 0.00 0.04 0.04 95 1014.8
20260903111054 62 77 0.0 0.0 0.00 0.04 0.04 95 1014.7
20260903110557 61 77 0.0 0.0 0.01 0.04 0.04 95 1014.7
20260903110053 61 77 0.0 0.0 0.01 0.04 0.04 95 1014.7
20260903105555 62 77 0.0 0.0 0.01 0.04 0.04 95 1014.6
20260903105053 61 77 0.0 0.0 0.02 0.04 0.04 95 1014.7
20260903104552 61 77 0.0 0.0 0.03 0.04 0.04 95 1014.7
20260903104051 61 77 0.0 1.0 0.03 0.04 0.04 95 1014.8
20260903103551 61 77 0.0 1.0 0.03 0.04 0.04 95 1014.7
20260903103051 61 267 0.0 0.0 0.03 0.04 0.04 95 1014.6
20260903102552 61 267 0.0 0.0 0.03 0.04 0.04 95 1014.5
20260903102050 61 267 0.0 0.0 0.03 0.04 0.04 94 1014.7
20260903101552 62 267 0.0 1.0 0.03 0.04 0.04 94 1014.6
20260903101050 62 267 0.0 1.0 0.03 0.04 0.04 94 1014.7
20260903100550 62 267 0.0 1.0 0.02 0.03 0.03 94 1014.6
20260903100050 62 267 0.0 1.0 0.02 0.03 0.03 94 1014.6
20260903095549 62 267 0.0 1.0 0.02 0.03 0.03 94 1014.6
20260903095050 62 267 0.0 2.0 0.01 0.02 0.02 94 1014.8
20260903094600 62 267 0.0 2.0 0.00 0.01 0.01 94 1014.7
20260903094049 62 17 0.0 0.0 0.01 0.01 0.01 94 1014.6
20260903093548 62 17 0.0 0.0 0.01 0.01 0.01 94 1014.8
20260903093052 62 302 0.0 0.0 0.01 0.01 0.01 94 1014.8
20260903092546 62 302 0.0 0.0 0.01 0.01 0.01 93 1014.7
20260903092046 62 302 0.0 0.0 0.01 0.01 0.01 93 1014.8
20260903091555 62 302 0.0 0.0 0.01 0.01 0.01 93 1014.8
20260903091048 62 302 0.0 0.0 0.01 0.01 0.01 93 1014.8
20260903090544 62 302 0.0 0.0 0.01 0.01 0.01 93 1015.1
20260903090043 62 302 0.0 0.0 0.01 0.01 0.01 93 1015.1
20260903085542 63 302 0.0 0.0 0.01 0.01 0.01 93 1015.3
20260903085045 63 302 0.0 0.0 0.01 0.01 0.01 93 1015.2
20260903084542 63 302 0.0 0.0 0.01 0.01 0.01 93 1015.2
20260903084041 63 302 0.0 0.0 0.00 0.00 0.00 93 1015.2
20260903083541 63 302 0.0 0.0 0.00 0.00 0.00 92 1015.1
20260903083041 63 302 0.0 0.0 0.00 0.00 0.00 92 1015.1
20260903082543 63 302 0.0 0.0 0.00 0.00 0.00 91 1015.1
20260903082041 63 302 0.0 0.0 0.00 0.00 0.00 91 1015.1
20260903081546 63 302 0.0 0.0 0.00 0.00 0.00 91 1015.2
20260903081041 63 302 0.0 0.0 0.00 0.00 0.00 90 1015.3
20260903080538 63 302 0.0 1.0 0.00 0.00 0.00 90 1015.2
20260903080039 64 302 0.0 1.0 0.00 0.00 0.00 90 1015.2